Flag for U.S.A. Weather past 2 weeks in Pensacola, Florida, U.S.A.

Now
78 °F

Clear.


Feels Like: 80 °F
Forecast: 74 / 91 °F
Wind: 3 mph from Northeast

Location: Pensacola Regional Airport

Current Time: Aug 2, 2015 at 1:24:53 AM

Latest Report: Aug 2, 2015 at 12:53 AM


Visibility: 10 mi

Pressure: 29.86 "Hg

Humidity: 76%

Dew point: 70 °F

Location of PensacolaLocation

Historic Weather in Pensacola — Graph

°F

Pensacola temperature yesterday

Maximum temperature yesterday: 90 °F (at 2:53 PM)
Minimum temperature yesterday: 76 °F (at 12:53 AM)
Average temperature yesterday: 80 °F

Past Weeks' High & Low Weather Summary

 TemperatureHumidityPressure
High97 °F (Jul 29, 1:53 PM)100% (Jul 26, 12:53 AM)30.04 "Hg (Jul 26, 12:53 AM)
Low73 °F (Jul 18, 5:53 AM)38% (Jul 27, 2:53 PM)29.83 "Hg (Aug 1, 6:53 PM)
Average83 °F76%29.94 "Hg
* Reported Jul 17 11:53 PM — Aug 1 11:53 PM, Pensacola, Weather by CustomWeather, © 2015

Note: Actual official high and low records may vary slightly from our data, if they occured in-between our weather recording intervals... More about our weather records

Advertising

Pensacola weather history for previous 24 hours

 ConditionsComfort  
Time TempWeatherWind HumidityBarometerVisibility
11:53 PM
Sat, Aug 1
78 °FClear.6 mph84%29.87 "Hg10 mi
10:53 PM78 °FPassing clouds.6 mph90%29.86 "Hg10 mi
9:53 PM80 °FPassing clouds.3 mph85%29.87 "Hg10 mi
8:53 PM80 °FPassing clouds.6 mph81%29.86 "Hg10 mi
7:53 PM80 °FPassing clouds.7 mph81%29.85 "Hg10 mi
6:53 PM81 °FSunny.6 mph79%29.83 "Hg10 mi
5:53 PM79 °FThunderstorms. Broken clouds.9 mph88%29.84 "Hg10 mi
5:02 PM78 °FThunderstorms. Fog.13 mph87%29.84 "Hg4 mi
3:53 PM84 °FLight rain. Broken clouds.3 mph80%29.84 "Hg10 mi
2:53 PM90 °FPassing clouds.8 mph66%29.85 "Hg10 mi
1:53 PM86 °FMostly cloudy.6 mph65%29.88 "Hg10 mi
12:53 PM88 °FBroken clouds.3 mph65%29.90 "Hg10 mi
11:53 AM87 °FSunny.5 mph69%29.90 "Hg10 mi
10:53 AM86 °FSunny.6 mph72%29.90 "Hg10 mi
9:53 AM83 °FScattered clouds.12 mph79%29.90 "Hg10 mi
8:53 AM80 °FScattered clouds.7 mph87%29.88 "Hg10 mi
7:53 AM77 °FPartly sunny.6 mph94%29.88 "Hg10 mi
6:53 AM76 °FSunny.7 mph97%29.86 "Hg10 mi
5:53 AM76 °FClear.6 mph97%29.87 "Hg10 mi
4:53 AM76 °FClear.5 mph94%29.86 "Hg10 mi
3:53 AM76 °FOvercast.No wind94%29.88 "Hg10 mi
2:53 AM76 °FClear.No wind91%29.87 "Hg10 mi
1:53 AM76 °FClear.3 mph94%29.86 "Hg10 mi
Weather by CustomWeather, © 2015

See weather overviewHow to use our weather pages